H1 CPF 2 NER 2023 3 30 9 089 01 glonass131 H2 1301901 9131 39155 2023 3 30 0 0 0 2023 4 2 23 45 0 900 1 1 0 0 0 1 H9 10 0 60033 0.00000 0 10793723.165 1688239.884 23101738.823 10 0 60033 900.00000 0 10099141.185 4437524.824 23046002.785 10 0 60033 1800.00000 0 9614685.166 7197518.974 22544915.095 10 0 60033 2700.00000 0 9344360.299 9898714.733 21607869.972 10 0 60033 3600.00000 0 9279873.697 12472683.531 20252670.704 10 0 60033 4500.00000 0 9401067.955 14854688.018 18505215.321 10 0 60033 5400.00000 0 9676867.131 16986157.024 16399027.497 10 0 60033 6300.00000 0 10066697.857 18816921.355 13974638.950 10 0 60033 7200.00000 0 10522328.312 20307117.267 11278832.506 10 0 60033 8100.00000 0 10990049.739 21428677.244 8363757.965 10 0 60033 9000.00000 0 11413109.993 22166344.011 5285935.820 10 0 60033 9900.00000 0 11734296.906 22518163.112 2105166.845 10 0 60033 10800.00000 0 11898561.841 22495430.977 -1116631.858 10 0 60033 11700.00000 0 11855570.876 22122098.491 -4316641.482 10 0 60033 12600.00000 0 11562073.222 21433653.447 -7432382.021 10 0 60033 13500.00000 0 10983983.438 20475528.050 -10402952.798 10 0 60033 14400.00000 0 10098085.734 19301098.533 -13170246.546 10 0 60033 15300.00000 0 8893284.681 17969362.119 -15680110.814 10 0 60033 16200.00000 0 7371346.115 16542390.968 -17883431.436 10 0 60033 17100.00000 0 5547094.220 15082672.714 -19737114.567 10 0 60033 18000.00000 0 3448054.490 13650452.255 -21204946.030 10 0 60033 18900.00000 0 1113556.546 12301189.297 -22258309.759 10 0 60033 19800.00000 0 -1406665.734 11083240.840 -22876750.450 10 0 60033 20700.00000 0 -4054317.441 10035867.639 -23048369.219 10 0 60033 21600.00000 0 -6764750.903 9187649.142 -22770044.951 10 0 60033 22500.00000 0 -9469445.169 8555373.232 -22047478.003 10 0 60033 23400.00000 0 -12098651.620 8143446.200 -20895056.772 10 0 60033 24300.00000 0 -14584094.036 7943845.637 -19335551.511 10 0 60033 25200.00000 0 -16861609.720 7936615.456 -17399643.228 10 0 60033 26100.00000 0 -18873621.432 8090879.090 -15125298.873 10 0 60033 27000.00000 0 -20571337.719 8366324.903 -12557006.932 10 0 60033 27900.00000 0 -21916591.363 8715098.218 -9744890.083 10 0 60033 28800.00000 0 -22883241.396 9084017.573 -6743713.777 10 0 60033 29700.00000 0 -23458082.977 9417019.772 -3611811.241 10 0 60033 30600.00000 0 -23641230.259 9657729.433 -409946.606 10 0 60033 31500.00000 0 -23445959.496 9752044.264 2799861.328 10 0 60033 32400.00000 0 -22898022.061 9650627.431 5955532.032 10 0 60033 33300.00000 0 -22034458.703 9311203.019 8996110.377 10 0 60033 34200.00000 0 -20901966.612 8700559.353 11862926.082 10 0 60033 35100.00000 0 -19554888.679 7796177.518 14500704.622 10 0 60033 36000.00000 0 -18052909.154 6587418.172 16858610.087 10 0 60033 36900.00000 0 -16458551.324 5076217.929 18891201.983 10 0 60033 37800.00000 0 -14834580.127 3277266.632 20559289.791 10 0 60033 38700.00000 0 -13241416.035 1217657.694 21830670.961 10 0 60033 39600.00000 0 -11734665.662 -1063975.151 22680739.949 10 0 60033 40500.00000 0 -10362869.599 -3518800.876 23092958.003 10 0 60033 41400.00000 0 -9165559.220 -6089561.017 23059175.407 10 0 60033 42300.00000 0 -8171701.852 -8712696.158 22579800.052 10 0 60033 43200.00000 0 -7398598.292 -11320744.435 21663808.433 10 0 60033 44100.00000 0 -6851278.641 -13844915.978 20328597.393 10 0 60033 45000.00000 0 -6522422.501 -16217739.486 18599677.490 10 0 60033 45900.00000 0 -6392808.383 -18375673.343 16510211.349 10 0 60033 46800.00000 0 -6432275.482 -20261574.128 14100403.155 10 0 60033 47700.00000 0 -6601159.657 -21826920.052 11416748.317 10 0 60033 48600.00000 0 -6852145.289 -23033695.963 8511155.267 10 0 60033 49500.00000 0 -7132456.644 -23855859.578 5439954.326 10 0 60033 50400.00000 0 -7386297.146 -24280325.312 2262811.497 10 0 60033 51300.00000 0 -7557433.473 -24307421.892 -958432.376 10 0 60033 52200.00000 0 -7591814.120 -23950801.901 -4160974.265 10 0 60033 53100.00000 0 -7440109.549 -23236804.842 -7282288.786 10 0 60033 54000.00000 0 -7060063.564 -22203298.890 -10261369.317 10 0 60033 54900.00000 0 -6418552.942 -20898049.355 -13039943.989 10 0 60033 55800.00000 0 -5493264.541 -19376682.758 -15563640.265 10 0 60033 56700.00000 0 -4273915.433 -17700333.360 -17783072.795 10 0 60033 57600.00000 0 -2762961.445 -15933073.047 -19654830.934 10 0 60033 58500.00000 0 -975761.773 -14139235.046 -21142344.566 10 0 60033 59400.00000 0 1059808.830 -12380746.506 -22216609.847 10 0 60033 60300.00000 0 3304284.704 -10714584.302 -22856759.828 10 0 60033 61200.00000 0 5708031.761 -9190462.743 -23050468.535 10 0 60033 62100.00000 0 8213107.336 -7848851.241 -22794181.038 10 0 60033 63000.00000 0 10755478.217 -6719405.229 -22093165.928 10 0 60033 63900.00000 0 13267502.511 -5819875.260 -20961390.557 10 0 60033 64800.00000 0 15680570.183 -5155538.194 -19421223.189 10 0 60033 65700.00000 0 17927790.824 -4719171.693 -17502969.759 10 0 60033 66600.00000 0 19946615.796 -4491569.864 -15244256.288 10 0 60033 67500.00000 0 21681285.347 -4442574.820 -12689270.915 10 0 60033 68400.00000 0 23084999.391 -4532577.243 -9887882.140 10 0 60033 69300.00000 0 24121722.834 -4714419.571 -6894652.017 10 0 60033 70200.00000 0 24767552.287 -4935618.947 -3767764.737 10 0 60033 71100.00000 0 25011589.769 -5140814.305 -567892.281 10 0 60033 72000.00000 0 24856289.811 -5274333.369 2642980.413 10 0 60033 72900.00000 0 24317268.427 -5282771.074 5802748.070 10 0 60033 73800.00000 0 23422584.562 -5117471.282 8850373.012 10 0 60033 74700.00000 0 22211526.179 -4736808.394 11727046.432 10 0 60033 75600.00000 0 20732953.069 -4108174.293 14377302.170 10 0 60033 76500.00000 0 19043266.086 -3209588.680 16750063.344 10 0 60033 77400.00000 0 17204087.172 -2030866.517 18799603.783 10 0 60033 78300.00000 0 15279745.666 -574294.505 20486407.968 10 0 60033 79200.00000 0 13334673.688 1145211.632 21777915.052 10 0 60033 80100.00000 0 11430816.687 3100476.328 22649134.484 10 0 60033 81000.00000 0 9625164.304 5252946.109 23083122.812 10 0 60033 81900.00000 0 7967501.798 7554050.016 23071313.304 10 0 60033 82800.00000 0 6498473.521 9946985.056 22613692.144 10 0 60033 83700.00000 0 5248037.549 12368855.967 21718817.182 10 0 60033 84600.00000 0 4234375.147 14753084.016 20403677.484 10 0 60033 85500.00000 0 3463300.679 17031988.007 18693394.411 10 0 60034 0.00000 0 2928197.554 19139432.753 16620767.658 10 0 60034 900.00000 0 2610484.157 21013437.762 14225671.127 10 0 60034 1800.00000 0 2480592.799 22598635.500 11554310.332 10 0 60034 2700.00000 0 2499421.617 23848480.144 8658349.477 10 0 60034 3600.00000 0 2620200.782 24727110.381 5593925.681 10 0 60034 4500.00000 0 2790695.209 25210787.315 2420567.016 10 0 60034 5400.00000 0 2955651.159 25288844.306 -799965.128 10 0 60034 6300.00000 0 3059382.761 24964105.981 -4004886.682 10 0 60034 7200.00000 0 3048387.409 24252756.057 -7131629.934 10 0 60034 8100.00000 0 2873876.917 23183657.305 -10119085.160 10 0 60034 9000.00000 0 2494114.121 21797150.739 -12908818.452 10 0 60034 9900.00000 0 1876452.528 20143384.036 -15446239.417 10 0 60034 10800.00000 0 998989.152 18280239.880 -17681693.391 10 0 60034 11700.00000 0 -148242.631 16270952.611 -19571454.451 10 0 60034 12600.00000 0 -1562593.334 14181515.265 -21078597.722 10 0 60034 13500.00000 0 -3228661.361 12077988.198 -22173732.436 10 0 60034 14400.00000 0 -5118707.642 10023824.513 -22835580.526 10 0 60034 15300.00000 0 -7193603.695 8077326.453 -23051389.120 10 0 60034 16200.00000 0 -9404272.786 6289340.742 -22817169.305 10 0 60034 17100.00000 0 -11693562.620 4701289.903 -22137757.352 10 0 60034 18000.00000 0 -13998469.582 3343621.558 -21026698.591 10 0 60034 18900.00000 0 -16252619.832 2234739.222 -19505957.921 10 0 60034 19800.00000 0 -18388902.008 1380456.935 -17605464.448 10 0 60034 20700.00000 0 -20342140.380 773997.537 -15362501.190 10 0 60034 21600.00000 0 -22051696.225 396531.001 -12820953.646 10 0 60034 22500.00000 0 -23463888.885 218226.431 -10030433.693 10 0 60034 23400.00000 0 -24534136.235 199769.834 -7045297.468 10 0 60034 24300.00000 0 -25228726.672 294280.553 -3923577.593 10 0 60034 25200.00000 0 -25526150.747 449543.063 -725851.377 10 0 60034 26100.00000 0 -25417939.261 610458.329 2485932.602 10 0 60034 27000.00000 0 -24908975.517 721610.546 5649646.803 10 0 60034 27900.00000 0 -24017271.187 729841.070 8704173.433 10 0 60034 28800.00000 0 -22773217.358 586721.861 11590567.562 10 0 60034 29700.00000 0 -21218343.567 250825.568 14253173.700 10 0 60034 30600.00000 0 -19403637.380 -310301.630 16640676.167 10 0 60034 31500.00000 0 -17387494.476 -1118545.781 18707065.093 10 0 60034 32400.00000 0 -15233383.660 -2184075.175 20412501.675 10 0 60034 33300.00000 0 -13007322.218 -3504682.141 21724068.180 10 0 60034 34200.00000 0 -10775264.290 -5065644.323 22616390.113 10 0 60034 35100.00000 0 -8600508.091 -6840112.274 23072120.030 10 0 60034 36000.00000 0 -6541226.983 -8790009.155 23082274.551 10 0 60034 36900.00000 0 -4648224.446 -10867407.762 22646418.186 10 0 60034 37800.00000 0 -2963004.264 -13016330.835 21772689.881 10 0 60034 38700.00000 0 -1516234.855 -15174903.282 20477670.384 10 0 60034 39600.00000 0 -326671.214 -17277770.188 18786091.042 10 0 60034 40500.00000 0 599420.258 -19258682.976 16730387.156 10 0 60034 41400.00000 0 1268308.966 -21053148.293 14350101.751 10 0 60034 42300.00000 0 1698315.813 -22601030.426 11691148.515 10 0 60034 43200.00000 0 1918815.853 -23848998.784 8804945.592 10 0 60034 44100.00000 0 1968768.054 -24752717.237 5747434.839 10 0 60034 45000.00000 0 1894832.674 -25278681.702 2578004.150 10 0 60034 45900.00000 0 1749154.932 -25405626.301 -641666.961 10 0 60034 46800.00000 0 1586908.699 -25125435.974 -3848815.941 10 0 60034 47700.00000 0 1463705.128 -24443524.077 -6980835.435 10 0 60034 48600.00000 0 1432977.885 -23378656.257 -9976515.413 10 0 60034 49500.00000 0 1543458.386 -21962225.807 -12777262.783 10 0 60034 50400.00000 0 1836851.193 -20237009.655 -15328272.170 10 0 60034 51300.00000 0 2345811.425 -18255456.918 -17579622.411 10 0 60034 52200.00000 0 3092313.091 -16077582.507 -19487274.957 10 0 60034 53100.00000 0 4086480.245 -13768555.637 -21013952.572 10 0 60034 54000.00000 0 5325932.574 -11396086.351 -22129879.626 10 0 60034 54900.00000 0 6795674.532 -9027721.771 -22813368.578 10 0 60034 55800.00000 0 8468533.233 -6728167.414 -23051240.874 10 0 60034 56700.00000 0 10306126.478 -4556747.311 -22839074.371 10 0 60034 57600.00000 0 12260319.323 -2565110.077 -22181273.333 10 0 60034 58500.00000 0 14275106.591 -795276.926 -21090960.973 10 0 60034 59400.00000 0 16288840.683 721887.754 -19589698.312 10 0 60034 60300.00000 0 18236709.657 1967721.230 -17707036.723 10 0 60034 61200.00000 0 20053360.295 2936281.749 -15479914.896 10 0 60034 62100.00000 0 21675555.313 3634324.090 -12951913.930 10 0 60034 63000.00000 0 23044753.126 4080736.216 -10172386.882 10 0 60034 63900.00000 0 24109502.446 4305464.612 -7195481.353 10 0 60034 64800.00000 0 24827552.495 4347977.138 -4079075.411 10 0 60034 65700.00000 0 25167592.157 4255331.215 -883648.400 10 0 60034 66600.00000 0 25110547.366 4079931.063 2328890.928 10 0 60034 67500.00000 0 24650384.826 3877069.954 5496396.299 10 0 60034 68400.00000 0 23794390.801 3702361.612 8557673.288 10 0 60034 69300.00000 0 22562915.471 3609168.647 11453644.156 10 0 60034 70200.00000 0 20988595.140 3646135.303 14128467.163 10 0 60034 71100.00000 0 19115085.704 3854926.840 16530590.609 10 0 60034 72000.00000 0 16995360.288 4268268.882 18613723.375 10 0 60034 72900.00000 0 14689641.201 4908367.493 20337705.473 10 0 60034 73800.00000 0 12263050.637 5785775.078 21669264.024 10 0 60034 74700.00000 0 9783075.521 6898749.124 22582641.950 10 0 60034 75600.00000 0 7316949.062 8233130.953 23060088.792 10 0 60034 76500.00000 0 4929054.717 9762750.855 23092205.060 10 0 60034 77400.00000 0 2678457.526 11450344.802 22678133.691 10 0 60034 78300.00000 0 616662.798 13248947.400 21825594.347 10 0 60034 79200.00000 0 -1214306.603 15103706.324 20550758.596 10 0 60034 80100.00000 0 -2783435.491 16954046.040 18877966.454 10 0 60034 81000.00000 0 -4071780.810 18736093.796 16839287.261 10 0 60034 81900.00000 0 -5073030.359 20385269.369 14473930.650 10 0 60034 82800.00000 0 -5793531.167 21838932.118 11827516.192 10 0 60034 83700.00000 0 -6251784.681 23038975.452 8951213.231 10 0 60034 84600.00000 0 -6477428.166 23934259.680 5900765.427 10 0 60034 85500.00000 0 -6509743.557 24482779.721 2735417.398 10 0 60035 0.00000 0 -6395755.499 24653474.306 -483236.118 10 0 60035 900.00000 0 -6187998.425 24427597.609 -3692457.896 10 0 60035 1800.00000 0 -5942047.709 23799592.139 -6829603.840 10 0 60035 2700.00000 0 -5713920.583 22777423.215 -9833366.671 10 0 60035 3600.00000 0 -5557459.183 21382357.828 -12644996.982 10 0 60035 4500.00000 0 -5521809.400 19648195.259 -15209477.006 10 0 60035 5400.00000 0 -5649105.487 17619980.605 -17476621.355 10 0 60035 6300.00000 0 -5972461.702 15352255.060 -19402080.795 10 0 60035 7200.00000 0 -6514358.927 12906917.150 -20948227.321 10 0 60035 8100.00000 0 -7285496.892 10350786.034 -22084901.672 10 0 60035 9000.00000 0 -8284162.200 7752970.842 -22790007.715 10 0 60035 9900.00000 0 -9496139.636 5182158.190 -23049941.708 10 0 60035 10800.00000 0 -10895170.531 2703933.072 -22859848.375 10 0 60035 11700.00000 0 -12443938.105 378246.359 -22223699.643 10 0 60035 12600.00000 0 -14095536.989 -1742864.810 -21154195.817 10 0 60035 13500.00000 0 -15795363.403 -3617208.972 -19672492.802 10 0 60035 14400.00000 0 -17483344.756 -5213945.360 -17807762.574 10 0 60035 15300.00000 0 -19096413.275 -6514601.444 -15596597.467 10 0 60035 16200.00000 0 -20571118.459 -7513563.583 -13082271.852 10 0 60035 17100.00000 0 -21846267.883 -8218023.982 -10313877.438 10 0 60035 18000.00000 0 -22865485.309 -8647390.118 -7345350.626 10 0 60035 18900.00000 0 -23579579.304 -8832185.342 -4234412.190 10 0 60035 19800.00000 0 -23948624.132 -8812490.432 -1041440.754 10 0 60035 20700.00000 0 -23943667.360 -8635994.520 2171697.522 10 0 60035 21600.00000 0 -23547994.630 -8355739.535 5342840.376 10 0 60035 22500.00000 0 -22757900.807 -8027654.282 8410719.458 10 0 60035 23400.00000 0 -21582937.252 -7707982.182 11316126.856 10 0 60035 24300.00000 0 -20045626.562 -7450710.318 14003037.096 10 0 60035 25200.00000 0 -18180657.759 -7305106.653 16419664.792 10 0 60035 26100.00000 0 -16033595.781 -7313467.231 18519439.658 10 0 60035 27000.00000 0 -13659158.528 -7509166.173 20261882.295 10 0 60035 27900.00000 0 -11119131.690 -7915088.662 21613366.084 10 0 60035 28800.00000 0 -8480005.898 -8542511.500 22547752.389 10 0 60035 29700.00000 0 -5810431.537 -9390477.716 23046888.360 10 0 60035 30600.00000 0 -3178593.745 -10445691.927 23100958.661 10 0 60035 31500.00000 0 -649613.388 -11682942.219 22708684.577 10 0 60035 32400.00000 0 1716921.054 -13066033.229 21877366.112 10 0 60035 33300.00000 0 3869190.607 -14549194.339 20622765.030 10 0 60035 34200.00000 0 5765060.571 -16078907.445 18968829.134 10 0 60035 35100.00000 0 7373594.071 -17596081.203 16947260.699 10 0 60035 36000.00000 0 8676101.205 -19038483.764 14596934.616 10 0 60035 36900.00000 0 9666679.090 -20343334.451 11963174.718 10 0 60035 37800.00000 0 10352218.768 -21449947.063 9096899.678 10 0 60035 38700.00000 0 10751876.895 -22302314.164 6053652.815 10 0 60035 39600.00000 0 10896032.636 -22851522.843 2892533.107 10 0 60035 40500.00000 0 10824772.253 -23057898.407 -324952.620 10 0 60035 41400.00000 0 10585964.421 -22892782.961 -3536093.998 10 0 60035 42300.00000 0 10233007.521 -22339870.620 -6678213.537 10 0 60035 43200.00000 0 9822345.008 -21396039.640 -9689909.527 10 0 60035 44100.00000 0 9410855.669 -20071643.069 -12512279.051 10 0 60035 45000.00000 0 9053231.700 -18390242.989 -15090094.711 10 0 60035 45900.00000 0 8799458.490 -16387797.574 -17372909.538 10 0 60035 46800.00000 0 8692505.910 -14111334.156 -19316066.078 10 0 60035 47700.00000 0 8766331.736 -11617164.004 -20881587.762 10 0 60035 48600.00000 0 9044284.175 -8968714.537 -22038933.583 10 0 60035 49500.00000 0 9537972.866 -6234071.208 -22765600.312 10 0 60035 50400.00000 0 10246657.076 -3483333.758 -23047560.098 10 0 60035 51300.00000 0 11157177.098 -785899.152 -22879525.184 10 0 60035 52200.00000 0 12244431.109 1792213.853 -22265035.396 10 0 60035 53100.00000 0 13472376.070 4190885.873 -21216367.973 10 0 60035 54000.00000 0 14795508.717 6358158.515 -19754273.176 10 0 60035 54900.00000 0 16160762.274 8252142.918 -17907542.685 10 0 60035 55800.00000 0 17509736.998 9842497.290 -15712421.214 10 0 60035 56700.00000 0 18781168.968 11111414.407 -13211874.786 10 0 60035 57600.00000 0 19913531.940 12054081.126 -10454731.747 10 0 60035 58500.00000 0 20847662.117 12678594.516 -7494714.940 10 0 60035 59400.00000 0 21529295.456 13005342.043 -4389385.152 10 0 60035 60300.00000 0 21911411.509 13065875.650 -1199017.329 10 0 60035 61200.00000 0 21956286.553 12901330.311 2014568.090 10 0 60035 62100.00000 0 21637171.531 12560456.169 5189196.070 10 0 60035 63000.00000 0 20939526.319 12097348.718 8263527.528 10 0 60035 63900.00000 0 19861760.535 11568973.272 11178227.466 10 0 60035 64800.00000 0 18415451.544 11032587.656 13877089.581 10 0 60035 65700.00000 0 16625031.732 10543170.480 16308097.498 10 0 60035 66600.00000 0 14526958.581 10150961.460 18424404.206 10 0 60035 67500.00000 0 12168401.816 9899215.143 20185213.074 10 0 60035 68400.00000 0 9605501.078 9822260.310 21556545.635 10 0 60035 69300.00000 0 6901264.545 9943944.779 22511883.277 10 0 60035 70200.00000 0 4123193.105 10276529.634 23032672.002 10 0 60035 71100.00000 0 1340725.478 10820078.921 23108681.492 10 0 60035 72000.00000 0 -1377393.008 11562370.911 22738211.809 10 0 60035 72900.00000 0 -3965712.093 12479336.194 21928143.273 10 0 60035 73800.00000 0 -6364543.567 13536006.561 20693827.311 10 0 60035 74700.00000 0 -8522193.199 14687937.863 19058818.499 10 0 60035 75600.00000 0 -10396866.143 15883050.390 17054450.555 10 0 60035 76500.00000 0 -11958166.852 17063812.737 14719261.709 10 0 60035 77400.00000 0 -13188130.396 18169680.114 12098277.795 10 0 60035 78300.00000 0 -14081740.875 19139686.553 9242164.260 10 0 60035 79200.00000 0 -14646913.472 19915082.875 6206261.332 10 0 60035 80100.00000 0 -14903939.001 20441909.044 3049519.440 10 0 60035 81000.00000 0 -14884412.541 20673391.143 -166645.223 10 0 60035 81900.00000 0 -14629689.988 20572059.475 -3379552.796 10 0 60035 82800.00000 0 -14188937.056 20111495.291 -6526495.202 10 0 60035 83700.00000 0 -13616853.373 19277628.933 -9545979.349 10 0 60035 84600.00000 0 -12971169.051 18069531.032 -12378951.753 10 0 60035 85500.00000 0 -12310021.568 16499660.202 -14969978.148 10 0 60036 0.00000 0 -11689326.515 14593554.396 -17268352.316 10 0 60036 900.00000 0 -11160256.024 12388976.070 -19229111.217 10 0 60036 1800.00000 0 -10766935.204 9934548.967 -20813931.384 10 0 60036 2700.00000 0 -10544455.443 7287940.471 -21991891.583 10 0 60036 3600.00000 0 -10517291.363 4513669.073 -22740082.628 10 0 60036 4500.00000 0 -10698189.194 1680629.278 -23044053.303 10 0 60036 5400.00000 0 -11087573.859 -1140560.766 -22898083.695 10 0 60036 6300.00000 0 -11673499.307 -3880276.529 -22305281.406 10 0 60036 7200.00000 0 -12432142.867 -6472554.591 -21277500.039 10 0 60036 8100.00000 0 -13328820.911 -8857598.542 -19835083.183 10 0 60036 9000.00000 0 -14319480.771 -10984019.007 -18006440.773 10 0 60036 9900.00000 0 -15352603.666 -12810715.512 -15827468.076 10 0 60036 10800.00000 0 -16371436.252 -14308323.676 -13340820.615 10 0 60036 11700.00000 0 -17316454.957 -15460170.202 -10595061.005 10 0 60036 12600.00000 0 -18127957.975 -16262699.120 -7643695.981 10 0 60036 13500.00000 0 -18748675.185 -16725355.285 -4544123.712 10 0 60036 14400.00000 0 -19126286.166 -16869933.827 -1356512.774 10 0 60036 15300.00000 0 -19215741.123 -16729426.377 1857364.843 10 0 60036 16200.00000 0 -18981288.411 -16346415.507 5035324.062 10 0 60036 17100.00000 0 -18398125.138 -15771087.028 8115957.791 10 0 60036 18000.00000 0 -17453603.353 -15058944.929 11039806.632 10 0 60036 18900.00000 0 -16147942.949 -14268325.288 13750486.064 10 0 60036 19800.00000 0 -14494422.695 -13457812.950 16195751.178 10 0 60036 20700.00000 0 -12519042.142 -12683668.077 18328480.483 10 0 60036 21600.00000 0 -10259668.419 -11997368.626 20107562.083 10 0 60036 22500.00000 0 -7764702.488 -11443369.649 21498667.297 10 0 60036 23400.00000 0 -5091318.620 -11057171.240 22474898.807 10 0 60036 24300.00000 0 -2303347.637 -10863774.313 23017302.362 10 0 60036 25200.00000 0 531111.318 -10876587.822 23115233.189 10 0 60036 26100.00000 0 3342254.831 -11096832.894 22766570.325 10 0 60036 27000.00000 0 6061212.180 -11513469.518 21977774.290 10 0 60036 27900.00000 0 8622648.993 -12103650.390 20763785.790 10 0 60036 28800.00000 0 10967232.047 -12833685.202 19147765.531 10 0 60036 29700.00000 0 13043854.557 -13660477.715 17160677.761 10 0 60036 30600.00000 0 14811530.195 -14533378.243 14840722.869 10 0 60036 31500.00000 0 16240876.738 -15396376.441 12232627.189 10 0 60036 32400.00000 0 17315126.431 -16190544.349 9386801.127 10 0 60036 33300.00000 0 18030619.153 -16856628.151 6358379.646 10 0 60036 34200.00000 0 18396755.713 -17337679.669 3206162.143 10 0 60036 35100.00000 0 18435411.214 -17581615.707 -8528.585 10 0 60036 36000.00000 0 18179831.445 -17543595.301 -3223046.137 10 0 60036 36900.00000 0 17673057.651 -17188111.603 -6374654.902 10 0 60036 37800.00000 0 16965945.796 -16490706.661 -9401773.485 10 0 60036 38700.00000 0 16114864.509 -15439232.976 -12245200.851 10 0 60036 39600.00000 0 15179170.349 -14034605.046 -14849298.759 10 0 60036 40500.00000 0 14218569.254 -12291006.094 -17163104.847 10 0 60036 41400.00000 0 13290478.221 -10235538.902 -19141352.151 10 0 60036 42300.00000 0 12447501.514 -7907333.952 -20745372.962 10 0 60036 43200.00000 0 11735130.554 -5356151.835 -21943867.710 10 0 60036 44100.00000 0 11189766.761 -2640538.812 -22713522.765 10 0 60036 45000.00000 0 10837152.213 174386.116 -23039464.645 10 0 60036 45900.00000 0 10691274.885 3019418.653 -22915541.960 10 0 60036 46800.00000 0 10753794.264 5823925.646 -22344430.352 10 0 60036 47700.00000 0 11014010.370 8518558.151 -21337559.636 10 0 60036 48600.00000 0 11449375.540 11037907.003 -19914866.191 10 0 60036 49500.00000 0 12026524.947 13322989.821 -18104377.298 10 0 60036 50400.00000 0 12702779.751 15323466.226 -15941637.498 10 0 60036 51300.00000 0 13428056.831 16999490.256 -13468990.184 10 0 60036 52200.00000 0 14147102.183 18323124.901 -10734730.249 10 0 60036 53100.00000 0 14801951.936 19279262.587 -7792145.999 10 0 60036 54000.00000 0 15334515.961 19866016.579 -4698470.343 10 0 60036 54900.00000 0 15689174.680 20094570.593 -1513762.604 10 0 60036 55800.00000 0 15815279.833 19988496.490 1700256.730 10 0 60036 56700.00000 0 15669454.786 19582571.907 4881395.677 10 0 60036 57600.00000 0 15217598.934 18921149.965 7968182.263 10 0 60036 58500.00000 0 14436513.569 18056151.216 10901035.722 10 0 60036 59400.00000 0 13315082.619 17044762.868 13623396.183 10 0 60036 60300.00000 0 11854960.140 15946941.612 16082792.875 10 0 60036 61200.00000 0 10070736.722 14822823.748 18231832.276 10 0 60036 62100.00000 0 7989578.036 13730149.355 20029089.414 10 0 60036 63000.00000 0 5650349.965 12721806.234 21439887.330 10 0 60036 63900.00000 0 3102265.288 11843594.071 22436951.642 10 0 60036 64800.00000 0 403105.837 11132300.209 23000929.166 10 0 60036 65700.00000 0 -2382908.988 10614165.781 23120761.629 10 0 60036 66600.00000 0 -5187522.330 10303805.350 22793907.586 10 0 60036 67500.00000 0 -7941012.577 10203625.090 22026407.851 10 0 60036 68400.00000 0 -10574835.374 10303764.563 20832792.010 10 0 60036 69300.00000 0 -13024228.177 10582566.121 19235825.997 10 0 60036 70200.00000 0 -15230671.342 11007554.429 17266103.209 10 0 60036 71100.00000 0 -17144104.676 11536887.620 14961484.354 10 0 60036 72000.00000 0 -18724807.357 12121221.680 12366394.059 10 0 60036 72900.00000 0 -19944862.100 12705911.940 9530985.170 10 0 60036 73800.00000 0 -20789140.866 13233460.575 6510184.662 10 0 60036 74700.00000 0 -21255768.794 13646107.598 3362638.027 10 0 60036 75600.00000 0 -21356044.613 13888455.647 149571.717 10 0 60036 76500.00000 0 -21113818.775 13910016.228 -3066404.331 10 0 60036 77400.00000 0 -20564353.756 13667567.381 -6222529.996 10 0 60036 78300.00000 0 -19752713.617 13127219.908 -9257138.583 10 0 60036 79200.00000 0 -18731750.603 12266101.229 -12110884.451 10 0 60036 80100.00000 0 -17559774.574 11073581.986 -14727928.206 10 0 60036 81000.00000 0 -16298005.241 9551990.193 -17057053.759 10 0 60036 81900.00000 0 -15007916.984 7716779.907 -19052692.974 10 0 60036 82800.00000 0 -13748590.865 5596145.276 -20675835.669 10 0 60036 83700.00000 0 -12574188.118 3230094.963 -21894805.519 10 0 60036 84600.00000 0 -11531653.887 669025.581 -22685885.611 10 0 60036 85500.00000 0 -10658749.631 -2028145.532 -23033780.908 99